Dewpoint
69 70 71 71 72 74 73 75 75 75 76 76 76 76 76 75 76 76 76 76 75 74 73 73 73 73 69 68 67 66 67 67 62 61 66 68 67 67 66 68 67 65 62
69 72 71 72 72 71 72 73 75 75 76 77 76 75 76 75 75 75 75 74 75 74 74 73 72 70 72 71 68 68 66 67 64 66 67 68 67 67 66 66 66 62 60
71 70 71 71 71 71 72 74 74 76 76 76 77 76 75 74 75 75 76 75 74 74 73 73 72 72 72 70 70 68 67 65 67 65 64 66 66 63 64 65 65 64 60
70 69 73 73 73 73 74 75 75 77 77 77 77 78 77 77 76 76 75 75 74 72 72 72 71 71 71 71 71 71 70 68 68 66 65 64 64 64 62 62 64 64 61
71 73 72 73 75 75 75 76 77 77 77 77 77 77 77 76 74 75 75 74 74 73 73 72 71 71 70 69 68 69 69 66 64 64 63 64 64 61 60 63 62 62 61
70 71 72 74 75 76 77 77 77 77 76 77 76 77 77 75 69 69 72 74 73 72 71 71 71 70 69 68 67 66 67 67 68 65 63 64 67 65 60 61 60 59 58
71 71 73 75 76 76 77 77 77 76 77 77 77 77 76 76 68 67 68 72 73 72 70 71 69 66 66 68 66 66 67 66 67 68 67 66 67 68 65 61 62 61 61
73 74 75 76 76 77 77 76 76 76 77 77 76 75 74 69 63 65 66 72 72 70 70 70 70 70 70 68 68 68 66 66 67 66 67 67 68 69 67 64 62 63 63
73 74 75 76 76 75 75 75 75 76 76 75 74 73 71 69 61 62 67 71 71 71 71 70 69 69 67 64 66 67 67 68 66 65 65 65 65 65 66 66 63 63 61
73 74 75 76 75 75 75 76 77 76 74 71 71 70 66 69 61 62 68 69 69 67 68 70 64 63 60 61 67 68 67 67 68 68 67 66 66 67 65 68 65 62 62
72 74 75 75 75 76 76 77 75 73 73 72 70 68 67 66 64 58 59 67 64 62 62 62 63 60 58 58 59 67 68 67 68 67 67 66 66 67 66 68 68 65 64
73 74 75 75 72 74 76 75 74 73 72 71 69 64 62 62 57 56 56 57 60 61 60 61 62 57 56 58 62 61 60 62 66 67 67 67 66 65 65 66 68 68 67
73 74 74 75 75 75 74 73 71 73 70 68 65 62 59 59 59 56 56 56 57 58 59 58 56 56 58 61 60 61 62 66 66 65 65 67 68 68 69 65 66 68 69
74 74 74 74 73 72 70 70 69 69 67 67 64 61 59 58 57 57 57 56 56 56 58 57 57 57 56 57 59 60 63 64 64 64 65 66 67 66 66 66 64 64 62
73 73 73 70 69 64 60 62 66 65 65 65 62 60 58 57 54 50 51 54 55 53 56 57 55 55 55 55 55 57 59 60 59 60 61 62 64 65 66 66 65 64 62
72 72 69 66 64 61 59 56 49 49 48 47 48 53 53 48 46 45 45 46 47 49 53 53 52 52 52 53 54 54 56 56 57 58 59 61 62 62 64 66 65 64 63
70 67 63 64 62 61 64 63 54 53 48 46 45 46 46 46 44 43 44 46 47 50 51 51 50 50 50 51 51 52 53 53 55 55 55 55 56 57 57 60 64 64 63
67 61 63 62 64 61 61 62 60 61 55 52 48 48 45 44 44 44 46 49 50 50 50 49 49 49 50 50 50 51 51 51 52 53 53 53 53 52 54 55 56 56 61
66 64 63 63 65 59 58 57 56 56 55 53 52 50 48 45 45 45 46 50 49 48 48 48 49 50 50 51 52 52 52 52 52 53 51 51 50 50 51 52 53 51 53
67 62 61 61 58 58 57 56 55 55 55 54 53 52 52 50 50 50 49 49 47 47 48 49 50 50 51 51 51 51 51 50 51 50 49 49 49 49 49 49 50 50 51
64 63 61 59 57 57 56 55 55 54 53 52 52 51 48 50 48 47 46 47 47 47 49 48 48 49 50 50 50 49 50 50 49 48 47 46 46 47 48 48 49 49 50
62 61 61 59 58 57 56 55 54 53 52 51 49 48 46 46 45 46 46 46 47 49 48 48 47 47 48 49 49 49 48 48 48 45 44 46 46 46 47 47 47 48 49
61 60 59 59 58 56 55 54 53 52 50 48 46 43 41 40 39 39 39 40 41 42 46 46 46 45 45 45 45 46 47 45 42 41 42 43 44 44 45 46 47 47 48
60 59 58 57 57 56 55 54 52 49 50 47 45 44 42 41 39 37 35 35 36 36 37 37 37 37 37 37 37 37 36 35 35 37 39 40 41 43 46 46 46 47 47
58 58 57 56 55 54 53 53 52 51 49 48 46 45 44 43 40 35 33 33 33 33 34 35 36 36 36 37 37 34 33 31 34 33 34 38 41 43 45 46 46 46 47
57 57 56 55 54 54 53 52 52 51 49 47 47 47 47 43 38 33 32 32 32 33 33 33 33 34 34 32 32 33 31 30 32 30 32 36 39 41 42 44 44 44 46
Lifted_Index
-6 -6 -5 -5 -4 -4 -5 -6 -7 -8 -8 -8 -7 -7 -7 -8 -8 -8 -8 -7 -7 -7 -6 -6 -5 -5 -4 -3 -2 -1 -1 -1 -1 -1 -1 -0 0 0 0 0 1 2 2
-7 -6 -6 -5 -5 -4 -5 -6 -7 -8 -8 -8 -7 -7 -7 -7 -7 -7 -7 -7 -7 -7 -6 -6 -5 -5 -4 -3 -2 -1 -1 -0 -1 -1 -1 -0 0 0 0 0 1 1 2
-7 -7 -6 -6 -5 -5 -6 -7 -8 -8 -8 -8 -8 -8 -8 -8 -7 -7 -7 -7 -7 -6 -5 -5 -4 -4 -4 -3 -3 -2 -1 -1 -1 -1 -1 -0 0 1 1 1 0 1 1
-6 -6 -6 -6 -6 -7 -7 -8 -9 -9 -9 -9 -9 -9 -8 -8 -8 -7 -7 -7 -6 -5 -5 -4 -4 -3 -3 -3 -2 -2 -2 -1 -1 -1 -1 -0 1 1 1 1 1 1 1
-5 -5 -6 -6 -6 -7 -8 -9 -9 -9 -9 -9 -9 -9 -9 -8 -8 -7 -6 -6 -5 -5 -4 -3 -3 -3 -2 -2 -2 -1 -1 -0 -0 -0 -0 -0 0 1 2 2 2 1 1
-5 -5 -6 -6 -7 -8 -8 -9 -9 -9 -9 -9 -9 -9 -8 -8 -6 -5 -5 -5 -5 -4 -3 -3 -3 -2 -2 -2 -1 -1 -0 0 0 -0 -0 -0 0 1 2 2 3 2 2
-5 -6 -7 -7 -8 -8 -8 -8 -8 -8 -9 -9 -9 -8 -8 -6 -4 -3 -3 -4 -4 -3 -2 -2 -2 -2 -2 -2 -1 -1 -1 -0 -0 -1 -1 -0 -0 0 1 2 3 3 3
-7 -7 -8 -8 -8 -8 -8 -8 -8 -8 -8 -8 -8 -7 -6 -4 -2 -1 -2 -2 -2 -2 -2 -2 -2 -2 -1 -1 -1 -1 -1 -1 -1 -1 -1 -1 -0 0 1 2 2 3 3
-7 -8 -9 -9 -8 -8 -8 -8 -8 -8 -8 -7 -6 -5 -4 -2 -1 -0 -0 -1 -2 -1 -1 -1 -1 -1 -1 -1 -1 -1 -1 -1 -1 -1 -1 -1 -1 -0 0 1 2 2 2
-7 -8 -8 -9 -8 -8 -8 -8 -8 -7 -7 -6 -4 -3 -2 -1 -0 0 -0 -1 -1 -0 -0 -0 0 0 0 -0 -0 -0 -1 -1 -1 -1 -1 -1 -1 -1 -0 0 1 1 1
-8 -8 -8 -8 -8 -8 -8 -8 -7 -6 -5 -4 -3 -2 -2 -1 0 1 0 0 1 2 2 2 3 3 2 1 -0 -0 -1 -1 -1 -0 -0 -1 -1 -1 -0 -0 -0 -0 -0
-8 -8 -8 -8 -8 -8 -8 -7 -6 -5 -5 -4 -3 -2 -1 -0 0 1 1 2 2 3 4 5 5 5 4 2 1 1 0 0 0 0 0 -0 -0 -0 -0 -0 -0 -1 -1
-8 -8 -8 -8 -8 -7 -7 -6 -6 -5 -4 -3 -2 -2 -1 0 1 1 2 3 4 5 7 7 8 7 6 5 4 3 2 1 1 1 1 0 0 0 -0 -0 -0 -0 -1
-8 -8 -8 -8 -7 -6 -5 -5 -5 -4 -4 -3 -2 -1 -0 1 1 2 3 4 6 7 8 8 9 8 8 7 6 5 4 3 3 2 2 1 1 1 0 0 -0 -0 -0
-8 -8 -8 -7 -6 -5 -4 -4 -4 -3 -3 -2 -2 -1 0 1 2 3 4 6 8 9 9 9 9 9 9 8 8 7 6 5 5 4 4 3 2 1 1 1 0 0 0
-7 -7 -7 -6 -5 -4 -3 -3 -3 -3 -2 -2 -1 1 2 2 3 4 6 8 9 9 9 10 10 10 10 10 9 8 7 7 6 5 5 4 3 3 2 1 1 1 1
-5 -5 -5 -4 -3 -3 -3 -3 -2 -2 -2 -1 1 2 3 4 5 6 8 10 10 10 11 11 12 12 11 11 10 9 8 8 7 6 5 5 4 3 3 2 2 1 1
-3 -4 -4 -3 -3 -3 -3 -2 -2 -1 -1 1 2 3 4 5 7 9 10 11 11 12 12 13 13 13 12 12 11 10 9 9 8 7 7 6 5 5 4 3 2 2 2
-3 -3 -3 -3 -2 -1 -1 -1 -1 -0 1 2 3 4 5 7 9 11 12 13 13 13 13 14 14 13 13 12 12 11 10 10 9 8 8 7 7 6 5 4 4 3 3
-3 -3 -3 -2 -1 -0 -0 -0 0 1 2 3 4 5 6 8 11 12 13 14 14 14 14 14 14 14 14 13 13 12 11 11 10 9 9 8 8 7 7 6 5 5 4
-2 -1 -1 -1 -0 0 0 1 1 2 3 3 4 5 7 10 12 14 15 15 14 14 14 14 14 14 14 14 14 13 13 12 12 11 11 10 9 9 8 8 7 7 6
-0 -0 -0 -0 -0 0 1 2 2 3 3 4 5 6 8 11 14 16 16 16 16 15 15 15 15 15 15 15 15 14 14 14 14 14 13 13 12 11 10 10 9 8 8
-1 -1 -1 -0 0 1 2 3 3 3 3 4 5 7 9 12 15 17 18 18 18 17 17 17 17 16 16 16 16 16 16 16 16 16 16 15 15 14 13 12 11 9 8
-1 -1 -1 -0 1 2 3 3 3 3 4 5 6 8 11 14 17 19 19 19 19 19 19 19 19 19 18 18 18 18 18 18 18 18 18 17 16 15 14 12 11 9 8
-1 -1 -0 0 1 2 3 3 3 4 5 6 8 10 13 16 18 19 19 20 20 20 20 20 20 20 20 19 19 19 19 20 19 19 18 17 16 14 13 12 11 9 8
-1 -0 0 1 2 2 3 3 4 4 6 7 8 11 14 16 18 19 19 20 20 20 20 20 20 20 20 20 20 20 20 20 19 19 18 17 16 14 13 11 10 9 7